Wheeler AAF, HI

11:27 PM HST on May 22, 2018 (GMT -1000)
Wheeler Army Air Field

Weather History for PHHI - March, 2013

Change the Weather History Date:

Wednesday, March 27, 2013

  Actual Average Record
Temperature  
Mean Temperature 67 °F -  
Max Temperature 70 °F 74 °F 81 °F (2016)
Min Temperature 64 °F 62 °F 59 °F (2008)
Cooling Degree Days 2    
Growing Degree Days 17 (Base 50)    
Moisture  
Dew Point 65 °F    
Average Humidity 90    
Maximum Humidity 94    
Minimum Humidity 82    
Precipitation  
Precipitation 0.24 in - - ()
Sea Level Pressure  
Sea Level Pressure 29.99 in    
Wind  
Wind Speed 7 mph (NNW)    
Max Wind Speed 15 mph    
Max Gust Speed 20 mph    
Visibility 9 miles    
Events Rain    
Averages and records for this station are not official NWS values.
T = Trace of Precipitation, MM = Missing Value Source: NWS Daily Summary

Daily Weather History Graph

Daily Weather History Graph

Search for Another Location

Airport or City:

Astronomy

Mar. 27, 2013 Rise Set
Actual Time 6:29 AM HST 6:45 PM HST
Civil Twilight 6:07 AM HST 7:07 PM HST
Nautical Twilight 5:41 AM HST 7:33 PM HST
Astronomical Twilight 5:14 AM HST 8:00 PM HST
Moon 7:29 PM HST (3/27) 6:34 AM HST (3/27)
Length of Visible Light 13h 00m
Length of Day
12h 16m
Full, 100% of the Moon is Illuminated
Mar 27
Full
Apr 2
Last Quarter
Apr 9
New
Apr 18
First Quarter
Apr 25
Full

Hourly Weather History & Observations

Time (HST) Temp. Dew Point Humidity Pressure Visibility Wind Dir Wind Speed Gust Speed Precip Events Conditions
12:55 AM 64.8 °F 61.9 °F 90% 29.99 in 10.0 mi NW 4.6 mph - N/A   Clear
1:55 AM 65.3 °F 62.4 °F 90% 29.97 in 10.0 mi NNW 3.5 mph - N/A   Overcast
2:55 AM 65.1 °F 62.1 °F 90% 29.95 in 10.0 mi WNW 5.8 mph - N/A   Overcast
3:55 AM 65.5 °F 63.0 °F 92% 29.94 in 10.0 mi NNW 4.6 mph - N/A   Overcast
4:55 AM 66.9 °F 64.0 °F 90% 29.94 in 10.0 mi NNW 5.8 mph - N/A   Overcast
5:55 AM 66.4 °F 64.0 °F 92% 29.95 in 10.0 mi NW 6.9 mph - N/A   Overcast
6:55 AM 66.2 °F 64.2 °F 93% 29.96 in 10.0 mi NNW 6.9 mph - N/A   Mostly Cloudy
7:10 AM 66.2 °F 64.4 °F 94% 29.97 in 10.0 mi NNW 8.1 mph - N/A   Mostly Cloudy
7:13 AM 66.2 °F 64.4 °F 94% 29.97 in 10.0 mi NW 6.9 mph - N/A   Light Drizzle
7:28 AM 66.2 °F 64.4 °F 94% 29.98 in 9.0 mi NNW 8.1 mph - N/A Rain Light Rain
7:29 AM 66.2 °F 64.4 °F 94% 29.98 in 10.0 mi NNW 8.1 mph - N/A   Mostly Cloudy
7:55 AM 67.3 °F 65.3 °F 93% 29.99 in 10.0 mi NW 9.2 mph - 0.00 in   Mostly Cloudy
7:56 AM 68.0 °F 64.4 °F 88% 29.99 in 10.0 mi NNW 9.2 mph - N/A   Mostly Cloudy
8:01 AM 68.0 °F 66.2 °F 94% 29.99 in 10.0 mi NNW 9.2 mph - N/A   Mostly Cloudy
8:19 AM 68.0 °F 66.2 °F 94% 29.99 in 10.0 mi NNW 9.2 mph - N/A   Overcast
8:23 AM 68.0 °F 66.2 °F 94% 30.00 in 9.0 mi NNW 10.4 mph - N/A   Light Drizzle
8:25 AM 68.0 °F 66.2 °F 94% 30.00 in 8.0 mi NNW 10.4 mph - N/A   Light Drizzle
8:34 AM 68.0 °F 66.2 °F 94% 30.00 in 10.0 mi NNW 9.2 mph - N/A   Light Drizzle
8:35 AM 68.0 °F 66.2 °F 94% 30.00 in 10.0 mi NNW 8.1 mph - N/A   Overcast
8:38 AM 68.0 °F 66.2 °F 94% 30.00 in 9.0 mi NNW 8.1 mph - N/A   Light Drizzle
8:39 AM 68.0 °F 66.2 °F 94% 30.00 in 8.0 mi NNW 6.9 mph - N/A   Drizzle
8:45 AM 68.0 °F 66.2 °F 94% 30.00 in 7.0 mi NNW 8.1 mph - N/A   Light Drizzle
8:55 AM 67.6 °F 65.7 °F 93% 30.01 in 6.0 mi NNW 8.1 mph - 0.00 in   Light Drizzle
9:00 AM 68.0 °F 66.2 °F 94% 30.01 in 7.0 mi NNW 9.2 mph - N/A   Light Drizzle
9:03 AM 68.0 °F 66.2 °F 94% 30.01 in 9.0 mi NNW 9.2 mph - N/A   Light Drizzle
9:05 AM 68.0 °F 66.2 °F 94% 30.00 in 10.0 mi North 9.2 mph - N/A   Light Drizzle
9:06 AM 68.0 °F 66.2 °F 94% 30.00 in 10.0 mi NNW 9.2 mph - N/A   Light Drizzle
9:09 AM 68.0 °F 66.2 °F 94% 30.00 in 10.0 mi NNW 9.2 mph - N/A   Overcast
9:16 AM 68.0 °F 66.2 °F 94% 30.01 in 10.0 mi NNW 10.4 mph - N/A   Overcast
9:18 AM 68.0 °F 66.2 °F 94% 30.00 in 9.0 mi NNW 10.4 mph - N/A   Overcast
9:33 AM 68.0 °F 66.2 °F 94% 30.01 in 6.0 mi NNW 4.6 mph - N/A Rain Light Rain
9:52 AM 68.0 °F 66.2 °F 94% 30.01 in 7.0 mi NNW 10.4 mph - N/A   Light Drizzle
9:55 AM 68.7 °F 66.4 °F 92% 30.01 in 9.0 mi NNW 9.2 mph - 0.01 in   Light Drizzle
10:06 AM 68.0 °F 66.2 °F 94% 30.01 in 9.0 mi NW 9.2 mph - N/A   Light Drizzle
10:13 AM 69.8 °F 66.2 °F 88% 30.00 in 10.0 mi NW 9.2 mph - N/A   Overcast
10:14 AM 69.8 °F 66.2 °F 88% 30.00 in 10.0 mi NW 8.1 mph - N/A   Light Drizzle
10:22 AM 69.8 °F 68.0 °F 94% 29.99 in 9.0 mi NNW 13.8 mph 19.6 mph N/A   Light Drizzle
10:25 AM 69.8 °F 68.0 °F 94% 30.00 in 10.0 mi NNW 10.4 mph 19.6 mph N/A Rain Light Rain
10:26 AM 69.8 °F 68.0 °F 94% 30.00 in 10.0 mi NNW 10.4 mph 19.6 mph N/A Rain Light Rain
10:35 AM 69.8 °F 66.2 °F 88% 30.01 in 8.0 mi NE 10.4 mph - N/A Rain Rain
10:37 AM 68.0 °F 66.2 °F 94% 30.00 in 7.0 mi NE 10.4 mph - N/A Rain Light Rain
10:39 AM 68.0 °F 66.2 °F 94% 30.01 in 6.0 mi ENE 8.1 mph - N/A Rain Light Rain
10:44 AM 68.0 °F 66.2 °F 94% 30.01 in 4.0 mi ENE 5.8 mph - N/A Rain Light Rain
10:49 AM 68.0 °F 66.2 °F 94% 30.01 in 2.5 mi ENE 8.1 mph - N/A Rain Rain
10:51 AM 68.0 °F 66.2 °F 94% 30.01 in 2.5 mi NE 4.6 mph - N/A Rain Heavy Rain
10:52 AM 68.0 °F 66.2 °F 94% 30.01 in 2.5 mi NE 5.8 mph - N/A Rain Heavy Rain
10:55 AM 67.8 °F 65.5 °F 92% 30.01 in 2.5 mi NE 4.6 mph - 0.05 in Rain Rain
10:56 AM 68.0 °F 66.2 °F 94% 30.02 in 2.5 mi NNE 3.5 mph - N/A Rain Rain
11:00 AM 68.0 °F 64.4 °F 88% 30.01 in 3.0 mi North 4.6 mph - N/A Rain Heavy Rain
11:03 AM 68.0 °F 66.2 °F 94% 30.01 in 3.0 mi NNE 9.2 mph - N/A Rain Rain
11:11 AM 68.0 °F 66.2 °F 94% 30.01 in 7.0 mi North 6.9 mph - N/A Rain Light Rain
11:17 AM 68.0 °F 66.2 °F 94% 30.01 in 6.0 mi NNW 8.1 mph - N/A Rain Rain
11:29 AM 68.0 °F 66.2 °F 94% 30.00 in 9.0 mi NNW 8.1 mph - N/A Rain Light Rain
11:32 AM 68.0 °F 66.2 °F 94% 30.01 in 9.0 mi NNW 8.1 mph - N/A Rain Light Rain
11:35 AM 68.0 °F 66.2 °F 94% 30.01 in 10.0 mi NNW 9.2 mph - N/A Rain Light Rain
11:39 AM 68.0 °F 66.2 °F 94% 30.01 in 8.0 mi NNW 11.5 mph - N/A Rain Light Rain
11:40 AM 68.0 °F 66.2 °F 94% 30.01 in 7.0 mi NNW 10.4 mph - N/A Rain Light Rain
11:55 AM 68.0 °F 65.7 °F 92% 30.01 in 3.0 mi NNW 8.1 mph - 0.12 in Rain Heavy Rain
12:00 PM 68.0 °F 66.2 °F 94% 30.01 in 4.0 mi North 10.4 mph - N/A Rain Light Rain
12:25 PM 68.0 °F 66.2 °F 94% 30.01 in 9.0 mi North 8.1 mph - N/A Rain Light Rain
12:38 PM 68.0 °F 66.2 °F 94% 30.00 in 9.0 mi NNW 12.7 mph - N/A Rain Light Rain
12:47 PM 69.8 °F 66.2 °F 88% 30.00 in 8.0 mi NNW 9.2 mph - N/A Rain Light Rain
12:50 PM 69.8 °F 66.2 °F 88% 30.00 in 6.0 mi NNW 10.4 mph - N/A Rain Heavy Rain
12:55 PM 68.7 °F 66.0 °F 91% 29.99 in 6.0 mi NNW 12.7 mph 17.3 mph 0.03 in Rain Light Rain
1:02 PM 68.0 °F 66.2 °F 94% 29.99 in 9.0 mi NNW 11.5 mph - N/A Rain Light Rain
1:25 PM 69.8 °F 66.2 °F 88% 29.97 in 10.0 mi NNW 12.7 mph - N/A Rain Light Rain
1:42 PM 69.8 °F 66.2 °F 88% 29.96 in 10.0 mi NNW 10.4 mph - N/A Rain Light Rain
1:47 PM 69.8 °F 68.0 °F 94% 29.96 in 10.0 mi NNW 11.5 mph - N/A Rain Light Rain
1:52 PM 69.8 °F 68.0 °F 94% 29.96 in 10.0 mi NNW 11.5 mph - N/A Rain Light Rain
1:53 PM 69.8 °F 68.0 °F 94% 29.96 in 9.0 mi North 11.5 mph - N/A Rain Light Rain
1:55 PM 70.2 °F 67.3 °F 91% 29.96 in 7.0 mi NNW 9.2 mph - 0.02 in Rain Light Rain
1:59 PM 69.8 °F 68.0 °F 94% 29.96 in 7.0 mi North 6.9 mph - N/A Rain Light Rain
2:07 PM 69.8 °F 68.0 °F 94% 29.96 in 10.0 mi NE 11.5 mph - N/A Rain Light Rain
2:08 PM 69.8 °F 68.0 °F 94% 29.96 in 10.0 mi NNE 12.7 mph - N/A Rain Light Rain
2:13 PM 69.8 °F 66.2 °F 88% 29.96 in 10.0 mi Variable 6.9 mph - N/A   Light Drizzle
2:17 PM 69.8 °F 66.2 °F 88% 29.96 in 10.0 mi NE 13.8 mph - N/A   Mostly Cloudy
2:20 PM 69.8 °F 66.2 °F 88% 29.96 in 10.0 mi NNE 8.1 mph - N/A   Mostly Cloudy
2:30 PM 69.8 °F 66.2 °F 88% 29.96 in 10.0 mi NNE 8.1 mph - N/A   Overcast
2:44 PM 69.8 °F 66.2 °F 88% 29.96 in 10.0 mi North 12.7 mph - N/A   Overcast
2:48 PM 69.8 °F 66.2 °F 88% 29.96 in 10.0 mi North 9.2 mph - N/A   Light Drizzle
2:53 PM 69.8 °F 66.2 °F 88% 29.96 in 10.0 mi NNW 12.7 mph - N/A   Light Drizzle
2:55 PM 69.8 °F 65.5 °F 86% 29.96 in 10.0 mi NNW 9.2 mph - 0.00 in   Light Drizzle
2:57 PM 69.8 °F 66.2 °F 88% 29.95 in 10.0 mi NNW 10.4 mph - N/A   Light Drizzle
2:59 PM 69.8 °F 66.2 °F 88% 29.95 in 10.0 mi NNW 11.5 mph - N/A   Overcast
3:08 PM 69.8 °F 64.4 °F 83% 29.95 in 10.0 mi NNW 13.8 mph - N/A   Overcast
3:14 PM 69.8 °F 64.4 °F 83% 29.95 in 10.0 mi North 15.0 mph - N/A   Light Drizzle
3:18 PM 69.8 °F 64.4 °F 83% 29.95 in 10.0 mi North 10.4 mph - N/A   Light Drizzle
3:19 PM 69.8 °F 64.4 °F 83% 29.95 in 10.0 mi North 10.4 mph - N/A   Overcast
3:20 PM 69.8 °F 64.4 °F 83% 29.95 in 10.0 mi NNW 10.4 mph - N/A   Overcast
3:21 PM 69.8 °F 64.4 °F 83% 29.95 in 10.0 mi NNW 10.4 mph - N/A   Mostly Cloudy
3:22 PM 69.8 °F 64.4 °F 83% 29.96 in 10.0 mi North 10.4 mph - N/A   Mostly Cloudy
3:24 PM 69.8 °F 64.4 °F 83% 29.96 in 10.0 mi North 8.1 mph - N/A   Mostly Cloudy
3:30 PM 69.8 °F 64.4 °F 83% 29.96 in 10.0 mi NNW 8.1 mph - N/A   Mostly Cloudy
3:31 PM 69.8 °F 64.4 °F 83% 29.95 in 10.0 mi NNW 8.1 mph - N/A   Overcast
3:38 PM 69.8 °F 64.4 °F 83% 29.95 in 10.0 mi North 8.1 mph - N/A   Overcast
3:48 PM 69.8 °F 64.4 °F 83% 29.95 in 10.0 mi NNE 9.2 mph - N/A   Overcast
3:51 PM 69.8 °F 64.4 °F 83% 29.95 in 10.0 mi NNE 9.2 mph - N/A   Overcast
3:55 PM 69.8 °F 64.2 °F 82% 29.94 in 10.0 mi NNE 6.9 mph - 0.00 in   Overcast
4:14 PM 69.8 °F 64.4 °F 83% 29.95 in 9.0 mi North 8.1 mph - N/A   Light Drizzle
4:30 PM 68.0 °F 64.4 °F 88% 29.94 in 7.0 mi North 9.2 mph - N/A   Light Drizzle
4:37 PM 68.0 °F 64.4 °F 88% 29.94 in 6.0 mi NNW 9.2 mph - N/A   Light Drizzle
4:43 PM 68.0 °F 64.4 °F 88% 29.94 in 8.0 mi North 6.9 mph - N/A   Light Drizzle
4:44 PM 68.0 °F 64.4 °F 88% 29.94 in 9.0 mi North 6.9 mph - N/A   Light Drizzle
4:55 PM 68.7 °F 65.1 °F 88% 29.95 in 10.0 mi NNW 6.9 mph - 0.01 in   Light Drizzle
4:58 PM 68.0 °F 64.4 °F 88% 29.95 in 10.0 mi North 6.9 mph - N/A   Mostly Cloudy
4:59 PM 68.0 °F 64.4 °F 88% 29.95 in 10.0 mi North 6.9 mph - N/A   Mostly Cloudy
5:00 PM 68.0 °F 64.4 °F 88% 29.95 in 10.0 mi North 8.1 mph - N/A   Mostly Cloudy
5:05 PM 68.0 °F 64.4 °F 88% 29.95 in 10.0 mi North 8.1 mph - N/A   Light Drizzle
5:09 PM 68.0 °F 64.4 °F 88% 29.95 in 10.0 mi NE 8.1 mph - N/A   Light Drizzle
5:14 PM 68.0 °F 64.4 °F 88% 29.95 in 10.0 mi North 4.6 mph - N/A   Mostly Cloudy
5:40 PM 68.0 °F 64.4 °F 88% 29.96 in 10.0 mi North 5.8 mph - N/A   Mostly Cloudy
5:41 PM 68.0 °F 64.4 °F 88% 29.96 in 10.0 mi North 4.6 mph - N/A   Mostly Cloudy
5:43 PM 68.0 °F 64.4 °F 88% 29.96 in 10.0 mi North 6.9 mph - N/A   Overcast
5:55 PM 68.2 °F 63.7 °F 85% 29.96 in 10.0 mi NNW 6.9 mph - 0.00 in   Overcast
5:56 PM 68.0 °F 64.4 °F 88% 29.96 in 10.0 mi NNW 5.8 mph - N/A   Overcast
6:01 PM 68.0 °F 64.4 °F 88% 29.97 in 10.0 mi NNW 5.8 mph - N/A   Overcast
6:02 PM 68.0 °F 64.4 °F 88% 29.97 in 10.0 mi NNW 6.9 mph - N/A   Overcast
6:12 PM 68.0 °F 64.4 °F 88% 29.97 in 10.0 mi NNW 5.8 mph - N/A   Overcast
6:28 PM 68.0 °F 62.6 °F 83% 29.98 in 10.0 mi North 5.8 mph - N/A   Mostly Cloudy
6:42 PM 68.0 °F 62.6 °F 83% 29.98 in 10.0 mi NNW 5.8 mph - N/A   Mostly Cloudy
6:43 PM 68.0 °F 62.6 °F 83% 29.98 in 10.0 mi NNW 5.8 mph - N/A   Mostly Cloudy
6:53 PM 68.0 °F 62.6 °F 83% 29.99 in 10.0 mi NW 5.8 mph - N/A   Overcast
6:55 PM 67.3 °F 63.3 °F 87% 29.99 in 10.0 mi NW 4.6 mph - N/A   Mostly Cloudy
7:26 PM 66.2 °F 64.4 °F 94% 29.99 in 10.0 mi NW 4.6 mph - N/A   Mostly Cloudy
7:35 PM 66.2 °F 64.4 °F 94% 29.99 in 10.0 mi Variable 3.5 mph - N/A   Mostly Cloudy
7:37 PM 66.2 °F 64.4 °F 94% 29.99 in 10.0 mi Calm Calm - N/A   Mostly Cloudy
7:43 PM 66.2 °F 62.6 °F 88% 30.00 in 10.0 mi NW 3.5 mph - N/A   Mostly Cloudy
7:49 PM 66.2 °F 64.4 °F 94% 30.00 in 10.0 mi NW 3.5 mph - N/A   Overcast
7:53 PM 66.2 °F 64.4 °F 94% 30.00 in 9.0 mi NNW 3.5 mph - N/A   Drizzle
7:55 PM 66.6 °F 63.7 °F 90% 30.00 in 7.0 mi NNW 3.5 mph - 0.00 in   Drizzle
7:56 PM 66.2 °F 64.4 °F 94% 30.00 in 7.0 mi NNW 3.5 mph - N/A   Drizzle
8:00 PM 66.2 °F 62.6 °F 88% 30.00 in 6.0 mi Calm Calm - N/A   Light Drizzle
8:01 PM 66.2 °F 62.6 °F 88% 30.00 in 6.0 mi Calm Calm - N/A   Light Drizzle
8:06 PM 66.2 °F 62.6 °F 88% 30.00 in 7.0 mi Calm Calm - N/A   Light Drizzle
8:10 PM 66.2 °F 62.6 °F 88% 30.00 in 8.0 mi Calm Calm - N/A   Light Drizzle
8:12 PM 66.2 °F 62.6 °F 88% 30.00 in 10.0 mi Calm Calm - N/A   Light Drizzle
8:14 PM 66.2 °F 62.6 °F 88% 30.00 in 10.0 mi Calm Calm - N/A   Light Drizzle
8:19 PM 66.2 °F 62.6 °F 88% 30.00 in 10.0 mi Calm Calm - N/A   Light Drizzle
8:20 PM 66.2 °F 62.6 °F 88% 30.00 in 10.0 mi Calm Calm - N/A   Mostly Cloudy
8:26 PM 66.2 °F 62.6 °F 88% 30.00 in 10.0 mi North 3.5 mph - N/A   Overcast
8:28 PM 66.2 °F 62.6 °F 88% 30.01 in 10.0 mi Variable 3.5 mph - N/A   Light Drizzle
8:39 PM 66.2 °F 62.6 °F 88% 30.01 in 10.0 mi Calm Calm - N/A   Mostly Cloudy
8:48 PM 66.2 °F 62.6 °F 88% 30.01 in 10.0 mi Calm Calm - N/A   Mostly Cloudy
8:55 PM 66.2 °F 62.8 °F 89% 30.02 in 10.0 mi Calm Calm - 0.00 in   Mostly Cloudy
8:56 PM 66.2 °F 62.6 °F 88% 30.02 in 10.0 mi Calm Calm - N/A   Mostly Cloudy
9:55 PM 66.4 °F 62.8 °F 88% 30.03 in 10.0 mi NW 3.5 mph - N/A   Overcast
10:10 PM 66.2 °F 62.6 °F 88% 30.03 in 10.0 mi Calm Calm - N/A   Light Drizzle
10:22 PM 66.2 °F 62.6 °F 88% 30.04 in 10.0 mi NW 3.5 mph - N/A   Overcast
10:28 PM 66.2 °F 62.6 °F 88% 30.04 in 10.0 mi NW 4.6 mph - N/A   Overcast
10:30 PM 66.2 °F 62.6 °F 88% 30.04 in 10.0 mi NW 4.6 mph - N/A   Overcast
10:37 PM 66.2 °F 62.6 °F 88% 30.03 in 10.0 mi WNW 4.6 mph - N/A   Overcast
10:53 PM 66.2 °F 62.6 °F 88% 30.04 in 10.0 mi Calm Calm - N/A   Overcast
10:55 PM 66.2 °F 62.4 °F 88% 30.04 in 10.0 mi NW 3.5 mph - 0.00 in   Overcast
11:02 PM 66.2 °F 62.6 °F 88% 30.03 in 10.0 mi WNW 3.5 mph - N/A   Overcast